Fryeburg, ME

11:01 PM EST on December 14, 2017 (GMT -0500)
Eastern Slopes Regional

Weather History for KIZG - June, 2014

Change the Weather History Date:

Thursday, June 5, 2014

  Actual Average Record
Temperature  
Mean Temperature 55 °F -  
Max Temperature 63 °F 71 °F 80 °F (2007)
Min Temperature 48 °F 44 °F 33 °F (1997)
Degree Days  
Heating Degree Days 10    
Growing Degree Days 5 (Base 50)    
Moisture  
Dew Point 53 °F    
Average Humidity 91    
Maximum Humidity 100    
Minimum Humidity 78    
Precipitation  
Precipitation 0.03 in - - ()
Sea Level Pressure  
Sea Level Pressure 29.74 in    
Wind  
Wind Speed 2 mph (North)    
Max Wind Speed 6 mph    
Max Gust Speed -    
Visibility 8 miles    
Events Rain    
Averages and records for this station are not official NWS values.
T = Trace of Precipitation, MM = Missing Value Source: NWS Daily Summary

Daily Weather History Graph

Daily Weather History Graph

Search for Another Location

Airport or City:

Trip Planner

Search our weather history database for the weather conditions in past years. The results will help you decide how hot, cold, wet, or windy it might be!

Date:

Astronomy

Jun. 05, 2014 Rise Set
Actual Time 5:02 AM EDT 8:22 PM EDT
Civil Twilight 4:26 AM EDT 8:58 PM EDT
Nautical Twilight 3:40 AM EDT 9:45 PM EDT
Astronomical Twilight 2:42 AM EDT 10:43 PM EDT
Moon 12:27 PM EDT (6/5) 12:38 AM EDT (6/5)
Length of Visible Light 16h 31m
Length of Day
15h 20m
Waxing Crescent, 48% of the Moon is Illuminated
Jun 5
Waxing Crescent
Jun 5
First Quarter
Jun 13
Full
Jun 19
Last Quarter
Jun 27
New

Hourly Weather History & Observations

Time (EDT) Temp. Dew Point Humidity Pressure Visibility Wind Dir Wind Speed Gust Speed Precip Events Conditions
12:24 AM 54.0 °F 52.0 °F 93% 29.80 in 10.0 mi South 4.6 mph - N/A   Overcast
12:43 AM 54.0 °F 52.0 °F 93% 29.80 in 10.0 mi SSE 3.5 mph - N/A   Overcast
12:54 AM 54.0 °F 52.0 °F 93% 29.81 in 10.0 mi South 4.6 mph - N/A   Overcast
1:54 AM 54.0 °F 51.1 °F 90% 29.79 in 10.0 mi Calm Calm - N/A   Overcast
2:54 AM 53.1 °F 52.0 °F 96% 29.78 in 10.0 mi Calm Calm - N/A   Overcast
3:54 AM 54.0 °F 52.0 °F 93% 29.76 in 10.0 mi Calm Calm - N/A   Overcast
4:54 AM 54.0 °F 52.0 °F 93% 29.76 in 10.0 mi Calm Calm - N/A   Overcast
5:44 AM 54.0 °F 52.0 °F 93% 29.76 in 10.0 mi Calm Calm - N/A   Overcast
5:54 AM 54.0 °F 52.0 °F 93% 29.77 in 10.0 mi Calm Calm - N/A   Overcast
6:15 AM 54.0 °F 53.1 °F 97% 29.77 in 2.5 mi Calm Calm - N/A   Overcast
6:54 AM 54.0 °F 53.1 °F 97% 29.78 in 1.8 mi Calm Calm - N/A   Overcast
7:04 AM 55.0 °F 54.0 °F 96% 29.77 in 2.5 mi Calm Calm - N/A   Overcast
7:17 AM 55.9 °F 53.1 °F 90% 29.78 in 5.0 mi Calm Calm - N/A   Overcast
7:44 AM 55.0 °F 54.0 °F 96% 29.78 in 1.8 mi Calm Calm - N/A   Overcast
7:54 AM 55.0 °F 54.0 °F 96% 29.79 in 1.2 mi Calm Calm - N/A   Overcast
7:58 AM 55.0 °F 54.0 °F 96% 29.78 in 2.0 mi Calm Calm - N/A   Overcast
8:08 AM 55.9 °F 54.0 °F 93% 29.78 in 3.0 mi Calm Calm - N/A   Overcast
8:38 AM 57.0 °F 54.0 °F 89% 29.78 in 10.0 mi Calm Calm - N/A   Overcast
8:54 AM 57.9 °F 53.1 °F 84% 29.78 in 10.0 mi Calm Calm - N/A   Overcast
9:54 AM 57.9 °F 54.0 °F 87% 29.76 in 10.0 mi North 4.6 mph - N/A   Overcast
10:54 AM 59.0 °F 54.0 °F 83% 29.76 in 10.0 mi Calm Calm - N/A   Overcast
11:54 AM 60.1 °F 55.0 °F 83% 29.77 in 10.0 mi Calm Calm - N/A   Overcast
12:54 PM 59.0 °F 55.0 °F 87% 29.77 in 10.0 mi Variable 3.5 mph - 0.01 in Rain Light Rain
1:05 PM 59.0 °F 55.9 °F 90% 29.77 in 10.0 mi Variable 3.5 mph - 0.00 in Rain Light Rain
1:13 PM 59.0 °F 55.9 °F 90% 29.77 in 8.0 mi Variable 3.5 mph - 0.01 in Rain Light Rain
1:54 PM 60.1 °F 57.0 °F 90% 29.75 in 10.0 mi Calm Calm - 0.01 in   Overcast
2:02 PM 59.0 °F 57.0 °F 93% 29.75 in 10.0 mi East 3.5 mph - N/A   Overcast
2:12 PM 59.0 °F 55.9 °F 90% 29.75 in 10.0 mi Calm Calm - N/A   Overcast
2:51 PM 60.8 °F 57.2 °F 88% 29.73 in 10.0 mi Calm Calm - 0.00 in Rain Light Rain
2:52 PM 60.1 °F 57.0 °F 90% 29.73 in 10.0 mi Calm Calm - 0.00 in Rain Light Rain
2:59 PM 60.1 °F 57.0 °F 90% 29.73 in 10.0 mi North 4.6 mph - 0.01 in Rain Light Rain
3:15 PM 60.1 °F 55.9 °F 86% 29.73 in 10.0 mi NNE 3.5 mph - 0.01 in   Overcast
3:54 PM 60.1 °F 55.9 °F 86% 29.73 in 10.0 mi NNE 5.8 mph - 0.01 in   Overcast
4:33 PM 62.1 °F 55.9 °F 80% 29.72 in 10.0 mi NNE 3.5 mph - N/A   Overcast
4:54 PM 61.0 °F 55.9 °F 83% 29.71 in 10.0 mi ENE 4.6 mph - N/A   Scattered Clouds
5:54 PM 62.1 °F 55.0 °F 78% 29.70 in 10.0 mi Calm Calm - N/A   Overcast
6:54 PM 62.1 °F 55.0 °F 78% 29.70 in 10.0 mi Calm Calm - N/A   Overcast
7:06 PM 62.1 °F 55.0 °F 78% 29.70 in 10.0 mi Calm Calm - N/A   Overcast
7:26 PM 61.0 °F 55.0 °F 81% 29.70 in 10.0 mi North 3.5 mph - N/A   Scattered Clouds
7:54 PM 57.9 °F 55.0 °F 90% 29.70 in 10.0 mi Calm Calm - N/A   Clear
8:54 PM 53.1 °F 52.0 °F 96% 29.70 in 10.0 mi WSW 4.6 mph - N/A   Clear
9:54 PM 51.1 °F 50.0 °F 96% 29.70 in 5.0 mi Calm Calm - N/A   Clear
10:12 PM 51.1 °F 48.9 °F 92% 29.69 in 8.0 mi SW 3.5 mph - N/A   Partly Cloudy
10:54 PM 50.0 °F 48.0 °F 93% 29.71 in 4.0 mi Calm Calm - N/A   Scattered Clouds
10:57 PM 48.9 °F 48.0 °F 97% 29.70 in 1.8 mi Calm Calm - N/A   Scattered Clouds
11:00 PM 48.0 °F 48.0 °F 100% 29.70 in 2.0 mi Calm Calm - N/A   Mostly Cloudy
11:11 PM 48.0 °F 46.9 °F 96% 29.70 in 3.0 mi West 3.5 mph - N/A   Mostly Cloudy
11:13 PM 48.0 °F 46.9 °F 96% 29.70 in 1.8 mi West 3.5 mph - N/A   Mostly Cloudy
11:21 PM 48.0 °F 46.9 °F 96% 29.70 in 1.0 mi Calm Calm - N/A   Mist
11:23 PM 48.0 °F 46.9 °F 96% 29.70 in 1.5 mi Calm Calm - N/A   Scattered Clouds
11:26 PM 48.0 °F 46.9 °F 96% 29.70 in 3.0 mi Calm Calm - N/A   Scattered Clouds
11:54 PM 48.0 °F 46.0 °F 93% 29.70 in 10.0 mi Calm Calm - N/A   Clear